Location: Newark
(25.6108°S, 54.5803°W)
Time: 08:31:48
(UTC+00:00)

Tiros 1 - Pass Details

Date: 05 November 2020
Orbit: 630 x 664 km, 48.4° (Epoch: 29 November)

Event Time Altitude Azimuth Distance (km) Brightness Sun altitude
Rises 16:09:37 0° 267° (W) 2,965 10.7 75.3°
Reaches altitude 10° 16:13:01 10° 242° (WSW) 2,068 10.0 74.7°
Maximum altitude 16:15:33 14° 210° (SSW) 1,811 9.6 74.2°
Drops below altitude 10° 16:18:07 10° 177° (S) 2,086 9.8 73.7°
Sets 16:21:36 0° 152° (SSE) 3,009 10.4 73.1°
